Location: Armstrong Village
(14.3346°N, 120.9854°E)
Time: 12:17:05
(UTC+00:00)

Cosmos 1821 Rocket - Pass Details

Date: 15 April 2026
Orbit: 945 x 1003 km, 82.9° (Epoch: 12 May)

Event Time Altitude Azimuth Distance (km) Brightness Sun altitude
Exits shadow 13:14:23 23° 319° (NW) 1,947 5.9 -43.2°
Drops below altitude 10° 13:17:05 10° 338° (NNW) 2,718 6.7 -43.7°
Sets 13:19:53 0° 348° (NNW) 3,675 7.4 -44.3°
